Temp
69 71 70 69 63 58 50 57 63 62 65 71 74 70 68 70 68 60 74 76 79 77 77 79 80 80 80 80 80 79 79 79 79 79 79 79 79 79 79 79 79 80 80 81 81 81 81 81 81
70 73 71 63 56 49 54 62 61 63 69 73 73 72 70 68 76 73 72 77 78 78 77 77 80 80 80 80 79 79 79 79 79 78 79 79 79 79 79 79 79 80 80 81 81 81 81 81 80
72 74 67 57 50 50 55 62 63 68 73 73 70 75 73 72 76 75 76 78 78 78 79 78 80 80 80 80 79 79 79 78 79 79 79 79 78 78 78 79 79 80 80 81 81 81 80 80 80
72 70 64 57 51 55 63 66 68 70 73 73 73 69 75 78 78 77 78 79 78 76 79 80 80 80 80 80 80 79 79 79 79 79 79 79 79 78 78 78 78 79 80 81 81 80 79 79 79
67 63 55 51 58 60 64 68 70 67 69 69 71 68 69 77 76 78 76 78 76 74 78 78 79 79 80 80 80 79 79 78 78 79 79 79 78 78 78 78 79 79 80 80 80 80 79 78 78
64 60 53 49 59 65 63 67 70 69 66 69 70 68 67 71 74 75 76 74 77 75 76 78 80 80 79 79 79 79 78 78 78 78 78 78 78 78 78 78 78 79 79 79 80 79 79 78 78
61 56 51 51 54 62 64 69 68 67 68 69 73 65 67 70 73 74 74 75 76 77 76 77 78 78 79 78 79 79 78 78 78 77 77 78 78 78 78 77 78 78 78 78 78 78 78 78 78
61 58 49 52 58 57 65 67 66 69 71 75 77 69 64 67 74 75 76 74 70 72 73 70 70 71 73 75 78 78 78 78 78 78 78 77 78 78 78 77 77 78 78 78 78 78 78 78 77
61 54 50 53 56 57 61 65 68 73 74 73 72 70 70 72 73 73 71 71 73 72 67 67 67 69 72 74 76 75 77 76 76 76 76 76 75 75 76 77 77 77 77 78 78 77 77 77 77
59 52 54 59 61 59 61 63 67 69 69 67 67 70 73 73 73 70 68 67 67 67 67 66 67 68 69 75 68 69 72 71 72 73 73 73 73 73 76 77 77 77 78 78 78 77 77 77 78
55 57 61 62 63 64 66 63 65 67 60 66 66 65 67 68 69 69 67 67 65 65 66 66 65 65 66 66 65 65 66 66 68 70 70 70 72 72 73 74 75 75 76 76 77 77 77 77 76
56 61 63 64 66 64 63 67 66 63 69 72 70 70 66 66 67 66 64 65 66 66 66 67 66 65 64 64 64 65 65 66 66 67 67 66 67 69 70 71 73 72 74 74 75 76 75 75 75
56 61 64 64 61 62 67 63 63 64 71 69 69 67 65 63 63 64 65 65 65 66 66 65 64 63 64 64 63 64 64 65 66 66 67 67 66 67 69 71 72 72 73 73 73 74 75 74 74
61 62 62 64 60 61 62 62 65 71 70 67 67 62 62 63 62 62 64 63 63 64 64 64 63 63 64 63 63 62 63 64 64 65 66 67 66 65 67 69 71 72 72 71 71 71 72 71 71
62 57 61 62 60 59 62 61 64 66 68 66 63 62 62 63 65 64 64 63 62 62 63 64 65 64 62 62 63 62 63 65 63 64 66 67 67 66 66 67 68 71 72 71 71 71 69 69 69
57 55 49 60 61 63 62 53 59 63 62 61 62 63 62 62 63 63 63 61 62 62 62 63 66 63 62 61 61 62 62 62 63 65 66 67 67 68 66 66 67 69 71 70 70 70 68 69 69
52 47 47 54 59 58 58 50 58 61 58 60 59 60 62 60 62 62 63 62 62 62 62 62 61 61 61 61 61 61 61 61 63 64 65 66 68 68 66 65 65 67 68 68 69 68 69 67 69
46 47 46 49 58 55 50 49 55 58 56 58 58 59 58 59 59 62 62 62 62 62 61 60 60 60 60 61 60 60 60 61 62 63 64 65 66 67 65 64 64 64 65 68 69 69 67 69 69
55 51 49 52 56 51 47 47 51 54 55 55 56 55 56 57 59 60 62 63 63 60 59 59 59 58 58 58 57 57 57 58 61 62 63 64 65 66 65 64 63 62 64 67 69 67 67 65 65
54 50 48 52 58 53 47 48 52 53 52 53 55 55 55 56 57 59 59 58 58 59 59 58 58 57 57 56 57 57 57 58 59 60 62 63 64 65 65 64 62 62 60 63 65 63 62 63 65
50 50 47 49 53 53 49 45 48 54 54 56 55 54 55 55 55 56 57 57 58 57 57 57 56 56 56 55 56 56 56 57 57 59 60 61 62 63 62 62 62 61 60 59 61 61 61 61 62
46 55 55 53 47 42 48 36 43 48 49 51 51 51 53 54 55 55 56 56 56 57 57 56 55 55 57 55 55 54 53 52 54 55 57 57 60 61 62 61 62 61 60 58 59 61 61 60 59
52 56 50 50 43 40 43 39 40 48 46 49 51 52 52 53 53 54 55 55 56 56 55 54 54 54 54 54 55 54 53 53 54 55 55 56 57 59 60 59 60 59 59 59 59 60 58 59 59
59 52 48 41 39 34 39 40 39 42 48 49 51 53 53 52 53 53 54 55 53 53 53 54 53 53 53 53 54 54 53 53 52 53 54 55 56 56 58 58 57 58 58 57 57 57 60 61 61
53 44 35 35 32 34 42 38 42 48 51 53 52 51 51 51 50 51 51 51 52 52 53 54 52 53 53 53 53 54 53 52 52 53 53 55 55 55 55 55 55 55 57 57 57 57 57 56 56
45 44 36 30 30 34 41 36 43 50 52 53 52 50 50 50 49 50 51 51 51 52 52 52 52 51 52 52 52 52 51 51 51 52 53 54 54 54 55 55 55 55 55 56 56 55 56 57 55
46 40 43 36 32 30 35 42 48 49 49 50 49 49 48 49 50 51 51 51 51 51 52 51 52 51 52 52 51 50 51 51 50 51 51 52 54 54 55 53 53 54 55 55 54 54 53 54 53
49 50 37 34 29 28 32 34 38 43 46 47 46 47 48 50 50 50 51 51 51 52 51 51 51 50 51 51 50 52 51 52 51 50 50 51 54 52 51 52 53 54 55 54 53 53 53 51 51
45 41 38 37 32 29 27 32 42 42 46 45 46 48 48 49 49 49 50 51 51 50 51 51 51 51 52 53 51 52 52 51 51 50 50 51 53 52 52 51 53 54 53 52 51 52 51 50 49
47 40 38 29 32 30 26 30 44 42 44 45 45 49 49 49 49 49 49 49 50 51 52 53 51 51 54 53 52 52 52 53 52 51 51 53 51 51 51 52 53 52 52 51 50 49 49 49 48
MSLP
1009.35 1009.54 1009.93 1010.48 1011.24 1011.44 1011.64 1011.12 1010.38 1010.39 1010.89 1010.89 1011.07 1011.38 1011.29 1011.25 1011.50 1011.73 1010.87 1010.73 1010.52 1010.46 1010.32 1010.73 1011.30 1011.41 1011.56 1011.56 1011.49 1011.60 1011.69 1011.93 1012.18 1012.38 1012.73 1013.04 1013.17 1013.30 1013.51 1013.65 1013.67 1013.73 1013.72 1013.75 1013.84 1013.92 1013.92 1013.88 1013.93
1009.06 1009.57 1009.88 1010.46 1011.60 1012.41 1011.75 1010.74 1010.27 1010.32 1010.64 1010.65 1010.88 1010.79 1010.91 1010.98 1011.03 1011.07 1011.03 1010.89 1011.47 1011.18 1010.68 1011.15 1011.35 1011.73 1012.07 1012.26 1012.18 1012.15 1012.11 1012.08 1012.25 1012.43 1012.72 1013.09 1013.26 1013.42 1013.64 1013.78 1013.89 1013.96 1014.04 1013.94 1013.92 1013.99 1013.93 1013.88 1013.90
1008.89 1009.16 1010.09 1011.24 1012.37 1012.32 1011.39 1010.39 1010.07 1010.29 1010.09 1010.50 1010.78 1010.60 1010.67 1010.62 1010.79 1010.63 1010.23 1011.31 1011.50 1011.33 1010.73 1011.34 1011.41 1012.04 1012.18 1012.39 1012.53 1012.75 1012.89 1012.91 1012.97 1013.00 1013.06 1013.28 1013.52 1013.53 1013.60 1013.76 1013.83 1013.92 1014.02 1014.06 1014.04 1013.97 1014.08 1014.08 1014.01
1008.95 1009.61 1011.06 1011.39 1012.25 1011.53 1010.68 1009.89 1009.94 1010.10 1010.33 1010.34 1010.41 1010.49 1010.23 1010.33 1010.36 1009.95 1011.41 1011.57 1011.43 1011.02 1010.94 1011.01 1011.40 1011.92 1012.15 1012.47 1012.84 1013.09 1013.21 1013.42 1013.57 1013.78 1013.82 1013.74 1013.65 1013.73 1013.82 1013.76 1013.91 1013.91 1013.84 1013.80 1013.89 1013.94 1013.98 1014.05 1014.05
1009.59 1010.63 1011.70 1012.23 1012.01 1011.08 1010.23 1009.72 1009.88 1010.32 1010.33 1010.30 1010.40 1010.60 1010.56 1010.28 1010.60 1010.99 1011.96 1011.77 1011.23 1011.18 1011.28 1011.40 1011.74 1012.03 1012.50 1012.80 1013.07 1013.15 1013.34 1013.57 1013.74 1013.83 1014.10 1014.17 1013.99 1013.92 1014.01 1013.93 1013.83 1013.77 1013.70 1013.70 1013.66 1013.69 1013.75 1013.78 1013.77
1010.64 1011.57 1012.45 1012.46 1011.76 1010.80 1010.10 1009.66 1009.70 1010.01 1010.15 1010.33 1010.72 1010.77 1011.20 1011.16 1011.07 1012.07 1011.96 1011.91 1011.83 1011.81 1011.71 1011.67 1011.88 1012.12 1012.64 1012.90 1013.10 1013.32 1013.41 1013.57 1013.82 1013.93 1013.98 1014.07 1014.19 1014.00 1013.97 1013.98 1013.94 1013.92 1013.77 1013.63 1013.52 1013.48 1013.57 1013.56 1013.59
1010.90 1012.00 1012.63 1012.15 1011.65 1010.76 1009.92 1009.66 1009.92 1010.12 1010.16 1010.25 1010.34 1011.37 1011.65 1011.68 1011.93 1012.43 1012.40 1012.36 1012.24 1011.99 1011.80 1012.07 1012.50 1012.59 1012.90 1013.06 1013.23 1013.39 1013.56 1013.73 1013.88 1013.90 1013.97 1014.07 1014.08 1013.93 1013.88 1013.77 1013.75 1013.66 1013.65 1013.52 1013.36 1013.29 1013.35 1013.31 1013.31
1010.91 1011.99 1012.49 1011.91 1011.32 1010.76 1010.08 1009.74 1009.96 1010.10 1009.95 1010.28 1010.21 1011.54 1012.23 1012.28 1012.42 1012.64 1012.72 1012.88 1012.77 1012.63 1012.71 1012.99 1012.99 1013.12 1013.25 1013.27 1013.36 1013.42 1013.51 1013.70 1013.80 1013.87 1013.96 1013.94 1013.85 1013.73 1013.60 1013.56 1013.51 1013.43 1013.37 1013.41 1013.14 1012.96 1012.85 1013.04 1013.00
1010.66 1011.87 1012.37 1011.48 1010.84 1010.40 1010.11 1010.12 1010.10 1009.85 1010.09 1010.72 1011.20 1011.74 1012.47 1012.58 1012.68 1013.00 1013.33 1013.35 1013.28 1013.33 1013.52 1013.51 1013.37 1013.65 1013.64 1013.56 1013.68 1013.82 1013.73 1013.92 1013.94 1013.90 1013.82 1013.77 1013.65 1013.52 1013.28 1013.15 1013.08 1012.92 1012.86 1012.96 1012.96 1012.74 1012.57 1012.65 1012.67
1010.92 1011.88 1011.60 1010.86 1010.22 1010.04 1010.06 1009.89 1010.03 1010.33 1010.79 1012.10 1012.40 1012.77 1012.84 1012.94 1013.06 1013.49 1013.84 1014.03 1014.08 1014.21 1014.25 1014.17 1014.15 1014.10 1013.93 1013.94 1014.09 1013.96 1013.87 1013.76 1013.77 1013.68 1013.65 1013.53 1013.38 1013.26 1013.03 1012.72 1012.64 1012.43 1012.39 1012.42 1012.47 1012.41 1012.40 1012.23 1012.21
1010.81 1011.09 1010.79 1010.28 1009.93 1009.84 1010.07 1010.28 1010.32 1010.80 1011.68 1011.81 1012.60 1013.24 1013.49 1013.52 1013.68 1013.67 1014.19 1014.61 1014.89 1015.05 1015.03 1015.07 1014.89 1014.62 1014.44 1014.49 1014.48 1014.27 1014.21 1014.11 1013.97 1013.83 1013.66 1013.47 1013.26 1012.92 1012.69 1012.42 1012.09 1012.03 1011.95 1011.81 1011.87 1011.85 1011.89 1011.76 1011.81
1010.47 1010.43 1010.36 1010.01 1009.92 1010.04 1010.19 1010.27 1010.82 1011.08 1011.23 1011.35 1012.23 1012.59 1013.43 1013.82 1013.95 1014.20 1014.73 1015.28 1015.31 1015.42 1015.45 1015.06 1015.20 1015.05 1015.06 1015.03 1014.81 1014.69 1014.47 1014.24 1014.00 1013.85 1013.78 1013.75 1013.33 1012.85 1012.48 1012.19 1011.84 1011.68 1011.35 1011.33 1011.39 1011.26 1011.32 1011.31 1011.32
1010.33 1010.31 1010.40 1010.14 1010.11 1010.16 1010.25 1010.66 1011.10 1011.48 1011.61 1011.98 1012.93 1013.66 1014.17 1014.68 1014.85 1015.04 1015.27 1015.53 1015.56 1015.78 1016.15 1016.27 1016.10 1015.86 1015.60 1015.30 1015.08 1014.83 1014.65 1014.43 1014.23 1013.78 1013.54 1013.42 1013.39 1013.10 1012.41 1011.72 1011.31 1011.16 1010.96 1010.82 1010.71 1010.78 1010.82 1010.79 1010.77
1010.28 1010.41 1010.81 1010.84 1010.67 1010.60 1010.69 1011.24 1011.35 1011.95 1012.38 1013.15 1013.91 1014.65 1015.19 1015.63 1015.88 1016.04 1016.26 1016.55 1016.74 1016.84 1016.80 1016.71 1016.35 1016.01 1015.84 1015.71 1015.46 1015.43 1015.16 1014.88 1014.43 1014.15 1013.63 1013.47 1013.23 1012.90 1012.51 1011.94 1011.29 1010.66 1010.30 1010.13 1010.05 1010.10 1010.15 1010.28 1010.37
1010.58 1011.07 1011.36 1011.57 1011.37 1011.31 1011.37 1012.27 1012.98 1013.66 1013.10 1013.75 1014.83 1015.53 1016.00 1016.42 1016.54 1016.50 1016.70 1017.16 1017.31 1017.25 1016.93 1016.49 1016.41 1016.18 1016.07 1016.05 1015.75 1015.63 1015.46 1015.14 1014.79 1014.22 1013.53 1013.32 1013.10 1012.80 1012.37 1011.77 1011.04 1010.39 1009.57 1009.37 1009.48 1009.66 1009.72 1009.85 1009.86
1011.68 1012.03 1012.63 1012.41 1012.04 1012.12 1012.15 1013.48 1014.18 1014.11 1014.33 1014.52 1015.03 1015.96 1016.69 1017.07 1017.13 1017.40 1017.45 1017.63 1017.49 1017.13 1017.08 1016.81 1016.45 1016.26 1015.96 1015.86 1015.68 1015.53 1015.52 1015.46 1015.03 1014.39 1013.82 1013.29 1012.81 1012.53 1012.26 1011.79 1011.07 1010.16 1009.48 1009.04 1008.88 1008.99 1009.09 1009.02 1008.94
1012.98 1013.28 1013.27 1012.95 1012.97 1013.06 1013.51 1015.21 1015.55 1015.41 1015.06 1015.19 1015.96 1016.61 1017.14 1017.63 1017.89 1018.02 1017.94 1017.86 1017.74 1017.59 1017.36 1017.26 1017.10 1016.92 1016.68 1016.31 1016.04 1015.67 1015.39 1015.06 1014.42 1014.01 1013.83 1013.54 1013.05 1012.57 1012.08 1011.65 1011.06 1010.20 1009.51 1008.70 1008.17 1008.16 1008.17 1008.15 1008.16
1013.58 1013.75 1013.76 1013.72 1014.28 1014.62 1015.70 1017.01 1016.93 1016.25 1015.59 1015.71 1016.32 1017.05 1017.72 1018.08 1018.38 1018.42 1018.39 1018.31 1018.04 1017.97 1018.16 1018.10 1017.99 1017.72 1017.36 1016.86 1016.55 1016.13 1015.65 1015.03 1014.57 1014.22 1013.91 1013.56 1013.05 1012.56 1012.09 1011.55 1010.81 1010.02 1009.08 1008.13 1007.59 1007.18 1007.35 1007.07 1007.50
1013.28 1013.60 1013.84 1013.98 1014.56 1015.64 1017.25 1017.80 1017.98 1017.57 1017.01 1017.01 1017.44 1017.93 1018.38 1018.68 1018.84 1018.72 1018.65 1018.69 1018.86 1018.84 1018.76 1018.52 1018.39 1018.40 1018.09 1017.66 1017.31 1016.83 1016.28 1015.47 1014.89 1014.42 1014.03 1013.54 1012.96 1012.45 1011.92 1011.33 1010.56 1009.89 1009.21 1007.79 1007.11 1006.87 1006.68 1006.83 1007.08
1013.36 1013.89 1014.20 1014.42 1014.86 1016.00 1017.76 1018.48 1018.78 1018.70 1018.69 1018.42 1018.34 1018.82 1019.07 1019.27 1019.36 1019.39 1019.41 1019.34 1019.23 1019.15 1019.04 1018.94 1019.02 1018.84 1018.57 1018.14 1017.55 1017.05 1016.60 1015.94 1015.50 1015.02 1014.28 1013.64 1013.16 1012.62 1011.94 1011.43 1010.74 1009.99 1009.22 1008.19 1007.05 1006.68 1006.63 1006.43 1006.63
1013.73 1014.01 1014.44 1014.96 1015.47 1016.36 1017.60 1019.00 1019.31 1019.41 1019.43 1019.19 1019.30 1019.37 1019.50 1019.59 1019.64 1019.70 1019.65 1019.60 1019.52 1019.45 1019.37 1019.33 1019.14 1018.91 1018.54 1018.10 1017.51 1016.98 1016.57 1016.06 1015.62 1015.12 1014.54 1014.01 1013.39 1012.72 1011.98 1011.40 1010.82 1009.82 1009.49 1008.88 1007.86 1007.22 1006.71 1006.27 1006.76
1013.85 1014.08 1014.70 1015.41 1016.38 1017.16 1017.67 1019.48 1019.78 1019.80 1019.88 1019.90 1019.91 1019.87 1019.84 1019.81 1019.84 1019.96 1020.07 1020.03 1020.00 1019.88 1019.62 1019.32 1019.13 1018.82 1018.30 1017.75 1017.54 1017.48 1017.23 1016.95 1016.36 1015.82 1015.16 1014.34 1013.39 1012.56 1011.99 1011.52 1010.89 1010.09 1009.50 1009.27 1008.57 1007.77 1007.30 1006.60 1006.32
1014.08 1014.49 1015.52 1016.17 1017.25 1017.89 1018.25 1019.07 1019.49 1019.73 1019.95 1019.89 1019.91 1020.07 1020.15 1020.25 1020.39 1020.42 1020.38 1020.33 1020.17 1020.05 1019.89 1019.55 1019.18 1018.70 1018.26 1017.98 1017.69 1017.36 1017.11 1016.75 1016.12 1015.46 1014.79 1014.00 1013.26 1012.40 1011.72 1011.44 1011.01 1010.31 1009.72 1009.44 1009.10 1008.27 1007.92 1007.34 1006.97
1014.39 1015.39 1016.62 1017.70 1018.51 1019.24 1018.99 1019.35 1019.42 1019.31 1019.06 1019.38 1019.63 1019.89 1020.30 1020.43 1020.57 1020.62 1020.57 1020.48 1020.35 1020.12 1019.79 1019.40 1019.16 1018.80 1018.39 1018.02 1017.67 1017.41 1017.07 1016.50 1015.98 1015.18 1014.60 1013.84 1013.12 1012.40 1011.82 1011.49 1011.19 1010.69 1010.04 1009.57 1009.19 1008.75 1007.97 1007.46 1007.23
1015.18 1016.62 1018.23 1019.38 1020.13 1020.26 1019.57 1019.68 1018.53 1018.26 1018.30 1018.49 1018.94 1019.91 1020.26 1020.54 1020.79 1020.86 1020.77 1020.53 1020.29 1020.12 1019.79 1019.44 1019.17 1018.84 1018.33 1017.91 1017.49 1017.12 1016.73 1016.28 1015.79 1015.06 1014.46 1013.81 1013.00 1012.31 1011.80 1011.47 1011.24 1010.67 1010.17 1009.91 1009.16 1008.95 1008.49 1008.25 1008.00
1016.23 1017.33 1019.07 1020.36 1021.37 1020.94 1019.99 1019.35 1018.29 1018.11 1018.15 1018.51 1019.21 1019.80 1020.24 1020.58 1020.77 1020.85 1020.67 1020.39 1020.32 1020.11 1019.70 1019.20 1019.00 1018.59 1018.07 1017.71 1017.28 1016.83 1016.38 1015.94 1015.49 1014.84 1014.13 1013.50 1012.83 1012.19 1011.72 1011.45 1011.02 1010.54 1010.17 1009.83 1009.44 1009.08 1008.85 1008.65 1008.58
1016.88 1018.12 1019.25 1020.57 1021.99 1021.96 1020.64 1019.59 1018.78 1018.73 1018.87 1019.22 1019.72 1020.00 1020.29 1020.55 1020.59 1020.64 1020.23 1020.20 1020.12 1019.84 1019.41 1019.12 1018.66 1018.14 1017.61 1017.24 1016.92 1016.58 1016.01 1015.44 1014.83 1014.13 1013.59 1013.07 1012.58 1012.01 1011.69 1011.33 1010.84 1010.18 1009.89 1009.90 1009.73 1009.29 1009.12 1008.94 1008.94
1017.02 1018.61 1020.01 1021.52 1022.73 1022.88 1021.70 1020.89 1020.08 1019.92 1019.70 1019.83 1020.10 1020.21 1020.36 1020.46 1020.54 1020.49 1020.50 1020.37 1020.04 1019.67 1019.37 1018.94 1018.47 1018.01 1017.53 1017.03 1016.57 1016.10 1015.55 1014.85 1014.16 1013.60 1013.08 1012.56 1011.94 1011.75 1011.60 1011.21 1010.69 1010.16 1009.82 1009.73 1009.72 1009.46 1009.37 1009.02 1008.91
1018.36 1019.55 1021.29 1022.38 1023.35 1023.62 1023.08 1021.78 1020.69 1020.48 1020.09 1019.93 1020.02 1020.33 1020.58 1020.69 1020.71 1020.78 1020.56 1020.34 1020.08 1019.63 1019.12 1018.65 1018.11 1017.57 1017.07 1016.39 1016.01 1015.51 1014.81 1014.22 1013.67 1013.26 1012.65 1012.03 1011.62 1011.47 1011.42 1011.10 1010.66 1010.29 1010.06 1009.88 1009.94 1009.70 1009.44 1009.27 1009.00
1019.18 1020.64 1021.78 1023.37 1024.19 1024.39 1024.00 1021.76 1020.83 1020.70 1020.37 1020.21 1020.39 1020.51 1020.60 1020.73 1020.86 1020.75 1020.56 1020.28 1019.95 1019.53 1019.13 1018.57 1017.88 1017.33 1016.72 1016.10 1015.67 1014.98 1014.37 1013.78 1013.15 1012.71 1012.16 1011.82 1011.53 1011.42 1011.35 1010.99 1010.68 1010.58 1010.36 1010.21 1010.08 1010.07 1009.93 1009.76 1009.43
Wind_Speed
5 1 4 3 6 7 2 3 2 4 5 4 8 4 5 2 3 3 2 7 8 7 6 6 5 4 4 5 7 9 10 10 10 9 8 8 8 7 7 6 7 8 9 10 9 9 7 6 5
2 4 3 3 7 5 5 4 3 2 3 8 3 2 2 1 2 4 3 4 5 2 6 6 8 6 4 3 4 4 6 8 9 9 8 7 8 8 7 7 7 7 7 8 8 8 8 8 6
2 2 4 6 5 4 2 3 3 4 7 5 3 1 2 3 2 4 7 7 5 2 8 6 10 7 6 3 4 4 2 1 3 6 7 7 6 7 7 8 8 8 8 8 8 8 7 8 8
1 5 5 7 4 2 3 4 4 5 5 2 4 3 1 2 4 7 18 5 2 3 5 10 11 10 8 7 6 4 5 5 5 3 3 4 5 5 6 8 7 8 9 9 9 8 7 7 7
5 3 5 4 2 4 3 3 6 4 4 2 2 2 3 8 6 8 10 7 12 7 6 8 13 12 10 8 5 5 5 5 5 5 6 6 4 5 6 7 9 10 10 10 10 11 10 9 8
5 4 6 2 2 5 0 4 7 5 0 4 5 3 4 5 5 11 10 9 9 9 9 10 12 11 8 7 7 6 6 5 6 6 6 7 8 7 8 9 10 11 11 11 11 9 10 10 10
7 5 4 0 0 2 1 3 6 5 5 4 7 4 4 4 3 8 7 8 9 8 11 11 10 9 8 8 8 7 6 6 6 6 7 8 9 9 10 10 11 12 13 13 12 11 11 11 11
6 6 3 1 1 3 4 3 3 2 0 3 1 6 3 3 8 7 9 11 10 11 10 8 8 8 6 5 11 11 9 7 7 8 8 8 10 10 11 12 12 14 14 15 15 15 14 13 12
3 6 1 4 3 2 0 5 1 3 5 5 5 4 6 4 11 7 6 6 8 9 7 6 8 7 6 7 9 10 12 11 9 7 8 7 5 7 10 12 14 15 16 17 17 17 15 15 14
6 4 6 3 4 4 3 5 5 5 5 6 6 6 6 5 13 11 7 6 5 5 7 7 7 7 7 6 6 5 5 4 3 4 5 4 6 7 10 14 17 17 17 18 18 18 16 14 8
2 5 5 3 3 3 6 3 2 9 1 6 15 8 5 6 9 12 6 6 7 4 5 7 6 6 7 6 4 3 3 3 3 5 5 5 5 5 5 5 6 6 11 8 10 9 8 9 7
2 2 4 4 4 3 3 4 5 1 8 6 11 17 8 10 9 8 9 7 6 5 6 11 10 8 8 4 4 3 4 4 4 5 5 4 4 4 5 5 6 6 5 8 7 6 7 9 9
2 3 2 2 2 4 3 4 3 4 7 9 11 3 5 6 8 8 7 6 7 10 7 7 7 7 6 6 4 5 5 5 6 4 4 3 5 6 6 6 6 6 6 7 8 8 8 9 10
1 2 4 6 2 1 3 3 4 9 6 9 10 6 6 7 6 6 7 5 5 5 4 1 3 3 3 4 5 4 4 5 5 5 5 6 4 5 7 8 7 7 7 7 8 8 7 6 5
3 3 6 7 6 2 1 5 8 8 7 9 10 8 8 7 6 5 4 5 5 4 3 4 4 2 6 5 5 4 4 5 4 5 6 8 7 8 8 8 8 9 7 9 7 7 5 6 6
5 7 5 6 6 5 4 5 9 18 8 6 11 10 10 6 3 8 7 7 5 5 7 5 5 7 8 7 4 3 3 3 4 5 6 8 10 9 10 8 9 10 9 7 7 7 7 8 6
8 3 3 4 5 1 7 5 10 14 10 4 8 11 9 7 8 6 6 5 5 4 3 7 8 9 8 7 6 6 6 3 3 3 4 8 10 13 11 8 10 12 11 8 7 7 8 6 5
2 4 2 3 7 11 7 6 13 16 8 6 13 11 9 8 5 4 6 5 4 3 6 6 5 7 7 5 5 4 4 5 6 7 7 10 8 13 10 9 10 12 11 11 8 10 8 3 3
7 5 2 1 3 9 4 5 12 13 12 12 12 10 9 8 4 5 4 4 6 6 6 6 7 7 4 3 3 3 4 4 5 6 9 10 10 11 13 9 11 10 13 13 12 7 8 5 4
5 5 2 3 5 9 1 8 6 10 6 6 12 11 8 6 6 6 6 6 5 4 6 7 6 6 4 3 3 3 3 3 3 5 8 9 11 11 10 9 9 11 11 14 8 6 3 1 5
3 5 2 2 4 4 4 5 6 5 7 10 9 5 5 6 6 4 5 5 5 6 6 6 6 6 4 5 3 3 3 3 4 7 7 9 10 10 10 11 10 8 9 10 8 5 6 5 2
2 2 2 2 3 3 2 3 2 1 4 4 3 4 5 5 3 3 4 4 5 5 6 6 6 6 6 6 3 2 2 2 3 4 5 8 8 9 10 11 9 9 6 8 8 7 5 2 4
3 2 3 3 4 3 3 5 4 4 3 5 6 4 4 3 2 2 4 5 4 5 6 5 5 7 6 7 5 3 3 3 4 5 7 8 8 8 8 9 11 9 6 7 10 8 6 4 2
4 3 6 5 3 3 1 4 4 6 8 4 4 6 3 2 3 4 4 4 4 5 5 5 6 5 5 5 6 5 6 7 6 5 6 6 7 7 7 8 8 7 7 6 6 10 7 3 3
6 7 5 6 6 5 2 2 8 5 6 7 8 4 2 3 3 5 6 6 6 7 7 6 5 6 6 5 6 6 7 7 8 8 7 11 8 8 8 7 8 6 6 7 5 5 5 7 6
3 5 7 4 3 5 4 5 5 2 2 3 7 5 2 4 4 5 5 4 6 6 6 6 6 6 6 6 7 6 7 5 7 9 8 7 9 8 8 7 7 7 6 7 6 2 3 4 4
1 2 2 6 2 2 4 6 3 3 2 4 5 2 2 4 5 6 8 7 7 6 7 7 8 8 8 7 6 7 8 10 11 12 9 8 10 8 8 8 8 7 5 5 5 3 3 2 3
4 4 3 4 2 4 4 4 4 4 6 3 3 4 4 5 6 7 6 7 6 7 7 8 8 10 9 9 6 7 10 12 12 10 10 9 10 7 7 8 7 6 5 5 5 3 3 2 2
5 4 6 4 4 3 3 6 2 8 7 9 7 5 6 5 6 4 5 6 7 8 9 10 10 9 10 11 9 10 11 12 11 9 9 9 5 5 7 7 7 6 6 6 5 4 6 5 5
4 4 5 6 4 1 4 9 3 3 3 3 2 3 4 4 3 5 6 7 7 9 10 13 12 10 13 12 11 11 11 11 11 10 10 5 5 4 5 6 5 6 7 6 6 6 6 6 6
Wind_Direction
304 61 135 62 50 65 351 348 272 112 110 157 137 166 196 182 182 220 213 220 199 167 142 117 90 98 132 138 121 116 116 115 116 118 126 131 134 140 148 151 159 170 176 181 187 192 197 195 193
311 133 53 83 72 60 299 285 169 177 120 139 135 97 142 123 149 285 308 205 297 18 97 90 79 61 57 35 61 96 123 136 143 145 146 151 151 155 165 176 185 193 198 196 199 207 206 204 209
188 73 82 86 112 141 180 260 204 45 123 111 194 191 192 175 329 231 216 52 358 12 114 88 93 63 49 54 57 16 2 47 153 158 158 164 170 173 175 187 193 202 209 215 217 218 227 229 227
50 15 38 80 126 239 205 213 128 108 57 194 154 72 284 40 163 212 58 59 12 59 80 110 93 67 50 41 23 7 10 353 343 315 251 200 194 200 202 201 212 218 215 214 221 224 228 239 249
37 52 57 72 352 275 245 169 127 101 165 136 113 139 321 342 311 62 53 36 39 43 70 83 77 69 50 36 30 30 12 348 333 320 306 290 267 244 245 237 230 227 233 243 231 216 219 224 232
48 96 61 114 259 281 296 123 132 139 114 107 76 69 313 317 344 49 37 37 58 70 79 80 78 70 55 49 31 16 2 349 335 323 308 299 293 279 267 261 258 253 248 249 253 250 244 230 233
107 78 151 128 192 2 351 81 164 137 141 151 153 98 295 347 336 50 35 54 57 56 66 64 51 50 43 35 24 12 1 350 336 319 310 298 286 278 273 263 260 255 254 253 253 252 254 248 244
102 88 83 265 59 76 324 69 114 198 108 98 49 159 197 8 106 83 70 62 66 68 68 66 71 44 44 40 25 12 11 357 341 327 309 299 290 282 270 261 258 258 256 256 252 252 250 253 252
119 63 142 184 155 152 44 134 340 308 89 53 5 78 101 75 127 99 77 53 62 60 53 54 54 50 49 52 39 41 39 27 357 341 313 303 290 280 279 268 260 258 256 256 256 254 252 254 253
82 87 216 225 182 168 114 130 142 86 48 56 49 36 72 117 135 120 117 115 92 56 42 48 60 56 51 47 32 29 20 25 5 345 317 303 285 275 278 272 262 257 256 257 258 258 256 253 251
172 162 198 209 233 112 125 87 83 118 276 187 161 158 155 150 140 135 129 80 79 70 60 46 61 62 51 33 16 20 16 10 352 345 330 305 298 285 274 271 269 258 254 254 254 257 250 246 244
96 141 174 195 162 116 104 124 100 209 218 166 169 158 157 170 152 122 105 93 97 85 61 37 25 39 36 32 36 19 17 355 353 341 330 326 317 297 280 264 265 245 246 246 239 241 239 236 235
120 146 143 85 136 104 119 77 133 303 357 100 130 138 142 100 87 74 93 93 79 75 62 33 13 28 22 32 12 9 3 358 336 336 324 320 313 306 298 279 266 258 249 236 237 235 237 233 231
20 99 58 21 344 20 114 96 94 344 39 91 125 97 59 65 59 75 83 110 90 87 83 80 69 58 43 38 28 1 342 330 337 319 318 319 303 296 300 298 281 258 246 240 236 235 231 240 227
89 100 39 23 316 356 13 40 80 344 19 123 124 108 91 78 89 139 114 79 88 86 114 63 57 47 53 31 14 2 343 339 326 312 320 325 324 309 306 300 293 278 255 240 236 235 222 225 218
50 54 62 318 357 347 90 249 4 349 12 145 140 125 114 129 102 41 51 67 69 77 56 29 14 17 16 11 3 1 324 308 296 320 330 335 334 328 319 311 299 286 274 243 227 221 223 225 203
9 92 35 348 31 329 53 352 340 338 338 165 106 109 123 89 64 66 89 117 99 90 90 39 20 14 5 358 344 350 335 296 324 333 335 334 336 335 327 310 304 300 283 256 228 215 214 208 209
132 108 52 70 358 40 58 360 340 350 358 124 118 105 93 89 60 85 110 112 134 88 40 41 23 12 351 349 338 333 326 345 344 348 344 335 334 337 328 321 312 317 293 268 234 216 206 171 175
108 97 124 210 56 78 65 42 6 353 32 80 88 87 88 81 67 76 87 67 39 34 28 22 11 353 355 330 333 322 328 328 346 344 329 335 337 339 339 336 331 327 318 279 252 238 205 185 167
95 109 7 324 30 90 31 38 3 21 15 56 96 96 89 85 62 58 52 43 44 24 11 8 354 344 328 321 292 280 295 299 303 316 322 333 334 330 337 334 331 334 331 311 255 214 203 100 164
45 118 153 199 28 63 125 35 7 2 38 65 59 83 84 110 106 66 56 38 21 19 356 349 346 332 325 329 322 327 313 315 340 341 331 329 321 321 333 332 333 337 338 329 300 292 259 147 207
102 223 178 219 93 214 100 248 339 335 65 52 84 117 135 120 87 56 29 10 344 328 331 340 336 329 311 333 333 333 317 297 268 283 281 295 300 318 327 328 336 335 342 326 326 326 295 290 171
175 87 42 20 97 94 338 82 249 182 210 208 207 190 173 155 115 68 4 346 338 338 320 310 320 318 333 328 297 294 300 255 277 293 301 305 309 310 317 329 327 341 345 346 326 321 315 318 308
104 81 51 58 84 41 226 111 245 188 198 213 212 209 167 93 40 11 347 341 313 310 329 340 348 338 343 348 340 311 292 294 297 292 298 294 302 301 305 316 322 322 339 343 340 326 318 329 303
67 47 347 353 9 222 165 67 243 221 208 199 199 147 90 37 359 342 336 340 345 341 331 328 348 324 318 324 325 316 302 297 288 292 288 296 294 293 295 310 315 324 331 329 340 329 349 346 334
45 134 151 253 228 262 271 247 256 252 172 107 94 115 84 359 320 298 295 323 339 320 323 338 317 306 309 308 301 299 295 293 288 279 278 279 279 280 296 301 306 318 338 341 336 320 346 349 349
155 57 170 104 26 53 260 306 350 30 82 113 114 103 317 314 318 324 350 342 325 323 325 308 297 299 301 298 299 301 297 300 295 286 283 284 289 286 293 308 306 315 334 339 339 347 2 21 13
98 142 35 10 241 271 290 278 243 309 263 259 203 242 285 295 324 341 333 325 315 317 301 302 297 287 287 287 281 293 298 294 292 292 290 286 281 281 296 302 312 320 349 2 349 12 2 53 48
360 29 53 112 121 196 303 269 216 273 277 250 206 226 252 305 304 298 309 309 308 301 303 301 300 297 304 307 289 296 295 296 293 289 284 281 293 292 300 311 320 344 8 15 5 10 26 35 50
102 129 106 106 273 134 154 263 327 298 342 121 177 277 289 263 279 273 298 314 310 312 315 312 309 307 313 307 291 291 296 300 299 294 296 308 304 307 318 326 1 12 17 18 24 21 23 24 37